Flight Track Log - Related Links

Times and Time Zones

All times are in EDT time to prevent confusion due to time zone crossing. See the ASQ6163 flight status page for this flight to view local times or setup timezone preferences in your user account.

Time Position Orientation Groundspeed Altitude Reporting Facility
EDT Latitude Longitude Course Direction KTS MPH feet Rate Location/Type
Wed 01:16:49 PM 41.3131 -95.9119 324° Northwest 189 217 1,300  Level Minneapolis Center
Wed 01:18:14 PM 41.3689 -95.9667 324° Northwest 200 230 4,000 1,986 Climbing Minneapolis Center
Wed 01:19:14 PM 41.3994 -96.0492 296° West 271 312 6,100 2,468 Climbing Minneapolis Center
Wed 01:20:18 PM 41.4331 -96.1414 296° West 256 295 9,100 2,619 Climbing Minneapolis Center
Wed 01:21:20 PM 41.4619 -96.2342 293° West 265 305 11,600 1,872 Climbing Minneapolis Center
Wed 01:22:23 PM 41.4933 -96.3342 293° West 277 319 13,000 1,200 Climbing Minneapolis Center
Wed 01:23:25 PM 41.5308 -96.4542 293° West 322 371 14,100 1,258 Climbing Minneapolis Center
Wed 01:24:27 PM 41.5347 -96.5886 272° West 358 412 15,600 1,452 Climbing Minneapolis Center
Wed 01:25:29 PM 41.5283 -96.7269 267° West 369 425 17,100 1,500 Climbing Minneapolis Center
Wed 01:26:31 PM 41.5208 -96.8944 267° West 374 430 18,700 1,452 Climbing Minneapolis Center
Wed 01:27:33 PM 41.5142 -97.0344 266° West 375 432 20,100 1,355 Climbing Minneapolis Center
Wed 01:28:35 PM 41.5069 -97.1753 266° West 377 434 21,500 1,306 Climbing Minneapolis Center
Wed 01:29:37 PM 41.4992 -97.3158 266° West 377 434 22,800 1,210 Climbing Minneapolis Center
Wed 01:30:39 PM 41.4922 -97.4558 266° West 377 434 24,000 1,200 Climbing Minneapolis Center
Wed 01:31:42 PM 41.4861 -97.5919 267° West 376 433 25,300 1,344 Climbing Minneapolis Center
Wed 01:32:44 PM 41.4775 -97.7536 266° West 370 426 26,800 1,355 Climbing Minneapolis Center
Wed 01:33:46 PM 41.4700 -97.8856 266° West 365 420 28,100 1,210 Climbing Minneapolis Center
Wed 01:34:48 PM 41.4631 -98.0158 266° West 360 414 29,300 919 Climbing Minneapolis Center
Wed 01:35:50 PM 41.4561 -98.1478 266° West 359 413 30,000 339 Climbing Minneapolis Center
Wed 01:36:52 PM 41.4478 -98.2856 265° West 363 418 30,000  Level Minneapolis Center
Wed 01:37:54 PM 41.4372 -98.4656 266° West 389 448 30,000  Level Minneapolis Center
Wed 01:38:56 PM 41.4267 -98.6217 265° West 414 476 30,000  Level Minneapolis Center
Wed 01:39:58 PM 41.4172 -98.7775 265° West 419 482 30,000  Level Minneapolis Center
Wed 01:41:01 PM 41.4078 -98.9328 265° West 419 482 30,000  Level Minneapolis Center
Wed 01:42:03 PM 41.3978 -99.0897 265° West 420 483 30,000  Level Minneapolis Center
Wed 01:43:05 PM 41.3861 -99.2706 265° West 422 486 30,000  Level Minneapolis Center
Wed 01:44:02 PM 41.3775 -99.3953 265° West 425 489 30,000  Level Denver Center
Wed 01:45:04 PM 41.3644 -99.5833 265° West 425 489 30,000  Level Denver Center
Wed 01:46:06 PM 41.3531 -99.7458 265° West 426 490 30,000  Level Denver Center
Wed 01:47:08 PM 41.3308 -99.8953 259° West 428 493 30,000  Level Denver Center
Wed 01:48:10 PM 41.2950 -100.0686 255° West 434 499 30,000  Level Denver Center
Wed 01:49:12 PM 41.2656 -100.2161 255° West 434 499 30,000  Level Denver Center
Wed 01:50:14 PM 41.2306 -100.3900 255° West 434 499 30,000  Level Denver Center
Wed 01:51:16 PM 41.2011 -100.5372 255° West 434 499 30,000  Level Denver Center
Wed 01:52:18 PM 41.1667 -100.7092 255° West 434 499 30,000  Level Denver Center
Wed 01:53:20 PM 41.1356 -100.8572 254° West 435 501 30,000  Level Denver Center
Wed 01:54:22 PM 41.0992 -101.0297 254° West 437 503 30,000  Level Denver Center
Wed 01:55:25 PM 41.0681 -101.1792 255° West 440 506 30,000  Level Denver Center
Wed 01:56:27 PM 41.0311 -101.3536 254° West 441 507 30,000  Level Denver Center
Wed 01:57:29 PM 40.9994 -101.5019 254° West 441 507 30,000  Level Denver Center
Wed 01:58:31 PM 40.9614 -101.6761 254° West 441 507 30,000  Level Denver Center
Wed 01:59:33 PM 40.9294 -101.8236 254° West 441 507 30,000  Level Denver Center
Wed 02:00:35 PM 40.8947 -101.9894 255° West 424 488 30,000  Level Denver Center
Wed 02:01:37 PM 40.8636 -102.1314 254° West 421 484 30,000  Level Denver Center
Wed 02:02:39 PM 40.8264 -102.2997 254° West 425 489 30,000  Level Denver Center
Wed 02:03:41 PM 40.7933 -102.4447 253° West 430 495 30,000  Level Denver Center
Wed 02:04:43 PM 40.7556 -102.6150 254° West 431 496 30,000  Level Denver Center
Wed 02:05:46 PM 40.7222 -102.7597 253° West 431 496 30,000  Level Denver Center
Wed 02:06:48 PM 40.6858 -102.9253 254° West 431 496 30,000  Level Denver Center
Wed 02:07:50 PM 40.6517 -103.0750 253° West 430 495 30,000  Level Denver Center
Wed 02:08:52 PM 40.6181 -103.2253 254° West 430 495 30,000  Level Denver Center
Wed 02:09:54 PM 40.5839 -103.3739 253° West 429 494 30,000 -677 Level Denver Center
Wed 02:10:56 PM 40.5475 -103.5231 252° West 429 494 28,600 -1,776 Descending Denver Center
Wed 02:11:59 PM 40.5081 -103.6983 254° West 421 484 26,300 -1,984 Descending Denver Center
Wed 02:13:00 PM 40.4725 -103.8344 251° West 400 460 24,500 -1,951 Descending Denver Center
Wed 02:14:02 PM 40.4028 -103.9406 229° Southwest 390 449 22,300 -1,742 Descending Denver Center
Wed 02:15:04 PM 40.3289 -104.0353 224° Southwest 371 427 20,900 -1,790 Descending Denver Center
Wed 02:16:06 PM 40.2464 -104.1233 219° Southwest 357 411 18,600 -1,680 Descending Denver Center
Wed 02:17:09 PM 40.1733 -104.2039 220° Southwest 343 395 17,400 -1,584 Descending Denver Center
Wed 02:18:11 PM 40.1033 -104.2797 220° Southwest 303 349 15,300 -1,839 Descending Denver Center
Wed 02:19:13 PM 40.0372 -104.3514 220° Southwest 307 353 13,600 -1,065 Descending Denver Center
Wed 02:20:15 PM 39.9653 -104.4292 220° Southwest 309 356 13,100 -726 Descending Denver Center
Wed 02:21:17 PM 39.8992 -104.4978 219° Southwest 307 353 12,100 -1,016 Descending Denver Center
Wed 02:22:19 PM 39.8861 -104.6092 261° West 302 348 11,000 -532 Descending Denver Center
Wed 02:23:21 PM 39.8872 -104.7150 271° West 300 345 11,000  Level Denver Center
Wed 02:24:23 PM 39.8667 -104.8056 254° West 266 306 11,000  Level Denver Center
Wed 02:25:25 PM 39.7953 -104.8078 181° South 260 299 11,000 -290 Level Denver Center
Wed 02:26:27 PM 39.7186 -104.8089 181° South 257 296 10,400 -484 Descending Denver Center
Wed 02:27:29 PM 39.6481 -104.8100 181° South 256 295 10,000 -192 Descending Denver Center
Wed 02:28:32 PM 39.5736 -104.8108 180° South 252 290 10,000  Level Denver Center
Wed 02:29:34 PM 39.5044 -104.8125 181° South 248 285 10,000  Level Denver Center
Wed 02:30:36 PM 39.4400 -104.8058 175° South 221 254 10,000  Level Denver Center
Wed 02:31:38 PM 39.4350 -104.7286 95° East 221 254 10,000  Level Denver Center
Wed 02:32:40 PM 39.4967 -104.7003 20° North 225 259 10,000  Level Denver Center
Wed 02:33:42 PM 39.5600 -104.7003 360° North 226 260 10,000 -97 Level Denver Center
Wed 02:34:44 PM 39.6250 -104.6994 North 220 253 9,800 -629 Descending Denver Center
Wed 02:35:46 PM 39.6814 -104.6986 North 204 235 8,700 -1,113 Descending Denver Center
Wed 02:36:48 PM 39.7400 -104.6978 North 202 232 7,500 -1,065 Descending Denver Center
Wed 02:37:50 PM 39.7914 -104.6972 360° North 186 214 6,500 -912 Descending Denver Center
Wed 02:38:53 PM 39.8381 -104.6964 North 161 185 5,600 -576 Descending Denver Center
Wed 02:39:55 PM 39.8714 -104.6956 North 140 161 5,300 -290 Descending Denver Center

Login

Don't have an account? Register now (free) for customized features, flight alerts, and more!